KE8GJZ-1 Weather Reports


Display with metric or nautical units.
time (UTC)temp
F
wind
direction
speed
MPH
gust
MPH
rain 1hr
in
rain 24hr
in
rain mn
in
humidity
%
barometer
mb
20260503175409 61 39 1.0 2.0 0.00 0.00 0.00 38 1009.7
20260503174904 63 171 1.0 2.0 0.00 0.00 0.00 36 1009.7
20260503174402 64 172 3.0 3.0 0.00 0.00 0.00 36 1009.9
20260503173857 64 23 2.0 3.0 0.00 0.00 0.00 37 1010.1
20260503173353 65 211 1.0 1.0 0.00 0.00 0.00 35 1009.7
20260503172850 64 266 2.0 3.0 0.00 0.00 0.00 38 1009.8
20260503172348 63 166 1.0 2.0 0.00 0.00 0.00 37 1010.2
20260503171844 63 316 3.0 5.0 0.00 0.00 0.00 37 1010.1
20260503171341 62 308 3.0 5.0 0.00 0.00 0.00 40 1010.3
20260503170838 62 355 1.0 2.0 0.00 0.00 0.00 38 1010.4
20260503170334 61 73 3.0 3.0 0.00 0.00 0.00 41 1010.6
20260503150727 54 223 0.0 0.0 0.00 0.00 0.00 46 1011.5
20260503150223 53 341 3.0 3.0 0.00 0.00 0.00 44 1011.7
20260503140147 58 353 1.0 1.0 0.00 0.00 0.00 41 1011.7
20260503131117 51 170 1.0 1.0 0.00 0.00 0.00 47 1011.9
20260503130615 50 321 2.0 2.0 0.00 0.00 0.00 48 1011.9
20260503130112 50 304 1.0 1.0 0.00 0.00 0.00 49 1012.1
20260503110505 40 300 0.0 0.0 0.00 0.00 0.00 62 1011.8
20260503090350 37 306 0.0 0.0 0.00 0.00 0.00 65 1012.5
20260503081318 35 257 0.0 0.0 0.00 0.00 0.00 71 1012.8
20260503080814 35 255 0.0 0.0 0.00 0.00 0.00 72 1013.0
20260503080311 35 267 0.0 0.0 0.00 0.00 0.00 71 1012.9
20260503072748 35 247 0.0 0.0 0.00 0.00 0.00 70 1012.9
20260503072245 35 248 0.0 0.0 0.00 0.00 0.00 69 1013.1
20260503071741 36 245 0.0 0.0 0.00 0.00 0.00 70 1012.8
20260503071238 36 306 0.0 0.0 0.00 0.00 0.00 70 1013.0
20260503070734 36 261 0.0 0.0 0.00 0.00 0.00 69 1013.0
20260503070232 36 261 0.0 0.0 0.00 0.00 0.00 68 1013.2
20260503060151 35 241 0.0 0.0 0.00 0.00 0.00 78 1013.4
20260503054638 35 236 0.0 0.0 0.00 0.00 0.00 79 1013.4
20260503054136 35 237 0.0 0.0 0.00 0.00 0.00 77 1013.6
20260503053633 35 242 0.0 0.0 0.00 0.00 0.00 78 1014.0
20260503053132 35 244 0.0 0.0 0.00 0.00 0.00 79 1013.6
20260503052628 35 245 0.0 0.0 0.00 0.00 0.00 78 1013.8
20260503052124 34 220 0.0 0.0 0.00 0.00 0.00 80 1014.1
20260503051620 35 256 0.0 0.0 0.00 0.00 0.00 81 1014.0
20260503051118 34 256 0.0 0.0 0.00 0.00 0.00 78 1014.3
20260503050614 34 271 0.0 0.0 0.00 0.00 0.00 79 1014.1
20260503050111 34 250 0.0 0.0 0.00 0.00 0.00 80 1014.0
20260503045608 35 247 0.0 0.0 0.00 0.00 0.00 82 1014.1
20260503045105 35 245 0.0 0.0 0.00 0.00 0.00 83 1014.1
20260503044602 35 272 0.0 0.0 0.00 0.00 0.00 82 1014.1
20260503044100 35 272 0.0 0.0 0.00 0.00 0.00 82 1013.9
20260503043555 35 249 0.0 0.0 0.00 0.00 0.00 81 1013.8
20260503043052 35 261 0.0 0.0 0.00 0.00 0.00 82 1014.2
20260503042549 35 232 0.0 0.0 0.00 0.00 0.00 82 1014.3
20260503042045 35 224 0.0 0.0 0.00 0.00 0.00 82 1014.1
20260503041543 35 235 0.0 0.0 0.00 0.00 0.00 81 1014.2
20260503041040 35 235 0.0 0.0 0.00 0.00 0.00 79 1014.0
20260503040537 35 236 0.0 0.0 0.00 0.00 0.00 80 1014.2
20260503040034 35 243 0.0 0.0 0.00 0.00 0.00 80 1014.2
20260503035532 35 244 0.0 0.0 0.00 0.00 0.00 79 1014.1
20260503035029 35 243 0.0 0.0 0.00 0.00 0.00 80 1014.2
20260503034526 35 244 0.0 0.0 0.00 0.00 0.00 80 1014.5
20260503034023 35 236 0.0 0.0 0.00 0.00 0.00 80 1014.2
20260503033520 35 239 0.0 0.0 0.00 0.00 0.00 80 1014.2
20260503033018 35 239 0.0 0.0 0.00 0.00 0.00 79 1014.2
20260503032516 35 239 0.0 0.0 0.00 0.00 0.00 78 1014.4
20260503032014 35 239 0.0 0.0 0.00 0.00 0.00 79 1014.5
20260503031511 35 240 0.0 0.0 0.00 0.00 0.00 79 1014.4
20260503031008 35 240 0.0 0.0 0.00 0.00 0.00 79 1014.5
20260503030504 35 230 0.0 0.0 0.00 0.00 0.00 76 1014.3
20260503030002 36 222 0.0 0.0 0.00 0.00 0.00 76 1014.4
20260503025458 36 222 0.0 0.0 0.00 0.00 0.00 76 1014.5
20260503024956 36 222 0.0 0.0 0.00 0.00 0.00 77 1014.5
20260503024452 36 222 0.0 0.0 0.00 0.00 0.00 78 1014.3
20260503023949 36 222 0.0 0.0 0.00 0.00 0.00 78 1014.4
20260503023446 36 223 0.0 0.0 0.00 0.00 0.00 78 1014.4
20260503022943 36 223 0.0 0.0 0.00 0.00 0.00 76 1014.7
20260503022438 37 223 0.0 0.0 0.00 0.00 0.00 77 1014.2
20260503021934 37 223 0.0 0.0 0.00 0.00 0.00 77 1014.6
20260503021430 37 224 0.0 0.0 0.00 0.00 0.00 76 1014.5
20260503020928 37 226 0.0 0.0 0.00 0.00 0.00 75 1014.5
20260503020426 38 226 0.0 0.0 0.00 0.00 0.00 75 1014.5
20260503015922 38 226 0.0 0.0 0.00 0.00 0.00 73 1014.4
20260503015419 38 226 0.0 0.0 0.00 0.00 0.00 69 1014.5
20260503014915 39 227 0.0 0.0 0.00 0.00 0.00 67 1014.4
20260503014412 39 227 0.0 0.0 0.00 0.00 0.00 66 1014.3
20260503013910 39 227 0.0 0.0 0.00 0.00 0.00 65 1014.4
20260503013407 40 227 0.0 0.0 0.00 0.00 0.00 63 1014.3
20260503012904 40 227 0.0 0.0 0.00 0.00 0.00 62 1014.2
20260503012402 41 227 0.0 0.0 0.00 0.00 0.00 62 1014.2
20260503011858 41 227 0.0 0.0 0.00 0.00 0.00 60 1014.2
20260503011355 42 227 0.0 0.0 0.00 0.00 0.00 58 1014.0
20260503010851 42 227 0.0 0.0 0.00 0.00 0.00 58 1014.2
20260503010348 42 227 0.0 0.0 0.00 0.00 0.00 58 1014.1
20260503005845 43 227 0.0 0.0 0.00 0.00 0.00 57 1014.0
20260503005343 43 227 0.0 0.0 0.00 0.00 0.00 54 1014.0
20260503004839 44 227 0.0 0.0 0.00 0.00 0.00 54 1014.3
20260503004336 44 227 0.0 0.0 0.00 0.00 0.00 52 1014.0
20260503003834 45 229 0.0 0.0 0.00 0.00 0.00 50 1013.8
20260503003331 45 229 0.0 0.0 0.00 0.00 0.00 49 1014.0
20260503002827 46 274 0.0 0.0 0.00 0.00 0.00 48 1014.2
20260503002325 46 205 0.0 0.0 0.00 0.00 0.00 49 1014.1
20260503001821 46 281 0.0 0.0 0.00 0.00 0.00 46 1013.9
20260503001317 46 171 1.0 1.0 0.00 0.00 0.00 48 1013.9
20260503000815 46 253 0.0 0.0 0.00 0.00 0.00 48 1013.8
20260503000313 46 248 0.0 0.0 0.00 0.00 0.00 47 1013.8
20260502235809 47 187 0.0 0.0 0.00 0.00 0.00 48 1013.9
20260502235307 47 237 0.0 0.0 0.00 0.00 0.00 47 1013.9
20260502234803 47 236 0.0 0.0 0.00 0.00 0.00 49 1013.9
20260502234300 47 269 0.0 0.0 0.00 0.00 0.00 48 1013.8
20260502233756 47 307 0.0 0.0 0.00 0.00 0.00 49 1013.9
20260502233253 47 299 0.0 0.0 0.00 0.00 0.00 46 1014.0
20260502232749 47 263 0.0 0.0 0.00 0.00 0.00 49 1014.1
20260502232246 47 188 0.0 0.0 0.00 0.00 0.00 47 1014.0
20260502231743 48 284 0.0 0.0 0.00 0.00 0.00 49 1014.0
20260502231241 48 289 0.0 1.0 0.00 0.00 0.00 48 1014.3
20260502230739 48 210 0.0 0.0 0.00 0.00 0.00 48 1014.0
20260502230237 48 276 0.0 0.0 0.00 0.00 0.00 46 1014.3
20260502225733 48 322 1.0 1.0 0.00 0.00 0.00 47 1014.3
20260502225230 48 296 0.0 1.0 0.00 0.00 0.00 48 1014.1
20260502224726 48 278 0.0 1.0 0.00 0.00 0.00 47 1014.2
20260502224223 48 150 1.0 2.0 0.00 0.00 0.00 45 1014.1
20260502223721 48 322 0.0 1.0 0.00 0.00 0.00 44 1014.3
20260502223218 48 315 1.0 1.0 0.00 0.00 0.00 45 1014.2
20260502222716 47 139 0.0 0.0 0.00 0.00 0.00 45 1014.3
20260502222212 48 290 0.0 1.0 0.00 0.00 0.00 44 1014.3
20260502221709 48 291 0.0 0.0 0.00 0.00 0.00 45 1014.3
20260502221205 48 250 0.0 0.0 0.00 0.00 0.00 44 1014.2
20260502220701 48 158 1.0 2.0 0.00 0.00 0.00 45 1014.2
20260502220158 48 55 0.0 1.0 0.00 0.00 0.00 44 1014.4
20260502215655 48 200 0.0 1.0 0.00 0.00 0.00 43 1014.4
20260502215152 48 60 0.0 0.0 0.00 0.00 0.00 43 1014.1
20260502214649 48 262 0.0 0.0 0.00 0.00 0.00 44 1014.4
20260502214146 48 299 0.0 1.0 0.00 0.00 0.00 45 1014.3
20260502213643 48 159 2.0 2.0 0.00 0.00 0.00 43 1014.5
20260502213140 48 290 1.0 2.0 0.00 0.00 0.00 42 1014.3
20260502212639 49 123 0.0 1.0 0.00 0.00 0.00 41 1014.4
20260502212137 49 155 1.0 1.0 0.00 0.00 0.00 43 1014.4
20260502211632 48 44 0.0 1.0 0.00 0.00 0.00 43 1014.0
20260502211130 49 304 1.0 1.0 0.00 0.00 0.00 42 1014.3
20260502210627 49 190 0.0 0.0 0.00 0.00 0.00 44 1014.6
20260502210124 48 299 0.0 0.0 0.00 0.00 0.00 44 1014.4
20260502205621 48 194 0.0 0.0 0.00 0.00 0.00 43 1014.3
20260502205117 49 105 0.0 0.0 0.00 0.00 0.00 42 1014.2
20260502204614 49 192 0.0 0.0 0.00 0.00 0.00 42 1014.6
20260502204112 49 326 1.0 1.0 0.00 0.00 0.00 42 1014.5
20260502203609 48 329 1.0 1.0 0.00 0.00 0.00 43 1014.4
20260502203106 48 177 0.0 0.0 0.00 0.00 0.00 42 1014.6
20260502202602 48 165 1.0 1.0 0.00 0.00 0.00 42 1014.7
20260502202100 48 87 1.0 1.0 0.00 0.00 0.00 44 1014.8
20260502201556 47 181 0.0 0.0 0.00 0.00 0.00 43 1014.8
20260502201053 47 330 0.0 1.0 0.00 0.00 0.00 44 1015.0
20260502200548 48 150 2.0 2.0 0.00 0.00 0.00 42 1014.9
20260502200047 49 143 0.0 1.0 0.00 0.00 0.00 41 1014.8
20260502195544 50 129 0.0 1.0 0.00 0.00 0.00 41 1015.1
20260502195040 49 252 0.0 1.0 0.00 0.00 0.00 41 1014.8
20260502194537 49 240 0.0 1.0 0.00 0.00 0.00 42 1015.0
20260502194033 49 257 2.0 2.0 0.00 0.00 0.00 40 1015.0
20260502193530 49 137 2.0 2.0 0.00 0.00 0.00 39 1015.1
20260502193027 50 116 0.0 1.0 0.00 0.00 0.00 38 1015.1
20260502192522 48 190 0.0 1.0 0.00 0.00 0.00 45 1015.1
20260502192020 48 318 1.0 1.0 0.00 0.00 0.00 42 1015.2
20260502191517 49 184 0.0 0.0 0.00 0.00 0.00 42 1015.4
20260502191015 50 174 0.0 1.0 0.00 0.00 0.00 41 1015.3
20260502190512 49 294 2.0 5.0 0.00 0.00 0.00 42 1015.4
20260502190009 48 247 0.0 0.0 0.00 0.00 0.00 41 1015.6
20260502185504 49 341 1.0 1.0 0.00 0.00 0.00 41 1015.1
20260502185001 50 294 0.0 1.0 0.00 0.00 0.00 38 1015.4
20260502184456 51 255 1.0 1.0 0.00 0.00 0.00 40 1015.4
20260502183953 50 119 1.0 2.0 0.00 0.00 0.00 39 1015.3
20260502183449 51 129 0.0 0.0 0.00 0.00 0.00 36 1015.4
20260502182944 53 287 1.0 2.0 0.00 0.00 0.00 37 1015.3
20260502182440 50 334 1.0 3.0 0.00 0.00 0.00 42 1015.6
20260502181936 48 187 0.0 1.0 0.00 0.00 0.00 42 1015.7
20260502181435 49 294 1.0 1.0 0.00 0.00 0.00 40 1015.5
20260502180933 50 150 1.0 1.0 0.00 0.00 0.00 38 1015.6
20260502180430 50 281 1.0 1.0 0.00 0.00 0.00 41 1015.9